{"data":{"norad_id":63283,"intl_designator":"2025-053U","name":"STARLINK-33669","alt_names":[],"object_type":"PAYLOAD","status":"ACTIVE","operator":null,"country":"US","launch_date":"2025-03-15","launch_site_code":"AFETR","launch_vehicle":null,"mission":null,"orbit_class":"UNKNOWN","rcs_meters":null,"size_class":null,"mass_kg":null,"dimensions":null,"purposes":["comms"],"wikipedia_slug":null,"has_3d_model":false,"image_url":null,"decayed_at":null,"tle_current":{"epoch":"2026-05-24T18:28:49.059264Z","epoch_age_seconds":88755,"freshness":"FRESH","line1":"1 63283U 25053U   26144.77001226  .00012806  00000+0  47384-3 0  9994","line2":"2 63283  42.9965 171.7064 0002102 275.6628  84.3984 15.27594390 67831","mean_motion":15.2759439,"eccentricity":0.0002102,"inclination_deg":42.9965,"raan_deg":171.7064,"arg_perigee_deg":275.6628,"mean_anomaly_deg":84.3984,"bstar":0.00047384,"rev_number":6783,"period_min":94.265860717124,"perigee_km":481.56379528094,"apogee_km":484.44821980131,"semimajor_km":6861.1430075411,"source":"CELESTRAK","updated_at":"2026-05-25T13:38:19.928038Z"}}}